Location: B?ogocice
(50.2413°N, 20.2361°E)
Time: 04:20:38
(UTC+00:00)

ALOS - Pass Details

Date: 28 September 2024
Orbit: 670 x 673 km, 98.0° (Epoch: 04 October)

Event Time Altitude Azimuth Distance (km) Brightness Sun altitude
Rises 02:08:26 0° 9° (N) 3,030 6.1 -23.5°
Reaches altitude 10° 02:10:45 10° 3° (N) 2,111 5.1 -23.2°
Enters shadow 02:14:44 44° 307° (NW) 934 2.7 -22.6°
